www.pogodaiklimat.ru

Погода и климат >> Архив погоды >> Россия >> Приморский край >> Партизанск


ПОГОДА в Партизанске

  • Прогноз погоды в Партизанске
  • Монитор погоды в Партизанске

АРХИВ ПОГОДЫ в Партизанске

Время (UTC), дата Ветер
(напр.,м/с)
 
Видим.   Явления Облачность Т
(С)
Тd
(С)
f
(%)
Тe
(С)
Тes
(С)
Комфортность P
(гПа)
Po
(гПа)
Тmin
(С)
Tmax
(С)
R
(мм)
R24
(мм)
S
(см)
12 9.06 Ю 4 50 км 6/0
[Ac trans Ci sp]
+10.9 +9.1 89 +8 +8 1012.2 987.6
15 9.06 Ю 1 4000 м дымка 10/10 300 м
[St]
+9.9 +8.6 92 +9 +9 1012.7 987.9
18 9.06 штиль 0 4000 м дымка 10/10 300 м
[St]
+9.8 +8.0 89 +9 +9 1012.4 987.6
21 9.06 штиль 0 4000 м дымка 10/10 300 м
[St]
+10.1 +8.7 91 +9 +9 1012.3 987.6 +9.5
00 10.06 Ю 2 4000 м дымка 10/10 300 м
[St]
+12.8 +9.6 81 +12 +12 1012.7 988.2
03 10.06 Ю 2 50 км 9/9 600 м
[Cu Sc]
+17.1 +10.7 66 +17 +19 1011.4 987.3
06 10.06 Ю 5 50 км 4/3 600 м
[Sc diur, vesp Ci fib]
+20.2 +11.9 59 +22 +26 комфорт 1009.2 985.4
09 10.06 Ю 5 50 км 6/3 600 м
[Sc diur, vesp Ac trans Ci fib]
+16.6 +10.9 69 +16 +16 1009.4 985.3 +20.3
12 10.06 Ю 3 50 км 9/9 600 м
[Sc]
+12.0 +9.7 86 +10 +10 1011.2 986.7
15 10.06 С 1 4000 м дымка 10/10 300 м
[St]
+10.2 +9.0 92 +10 +10 1012.3 987.6
18 10.06 штиль 0 н/о н/о +10.3 +9.2 93 +10 +10 1012.1 987.4
21 10.06 С 2 н/о н/о +11.0 +9.9 93 +10 +10 1011.2 986.6 +10.1
00 11.06 ЮВ 2 50 км 10/10 300 м
[St]
+13.1 +10.7 85 +12 +12 1011.5 987.1
03 11.06 Ю 5 50 км 3/1 1000 м
[Cu med, cong Ci fib]
+19.0 +12.2 65 +20 +29 1010.0 986.1
06 11.06 Ю 5 50 км 3/1 1000 м
[Cu med, cong Ci fib]
+21.2 +10.5 50 +23 +29 комфорт 1008.6 984.9
09 11.06 Ю 3 50 км 3/1 1000 м
[Sc diur, vesp Ci fib]
+19.0 +10.9 59 +20 +21 1008.1 984.3 +21.6
12 11.06 Ю 2 50 км 1/1 600 м
[Sc]
+10.5 +8.9 90 +9 +9 1010.8 986.2
15 11.06 Ю 2 500 м туман ?/? +9.4 +8.3 93 +8 +8 1011.6 986.9
18 11.06 Ю 1 200 м туман ?/? +8.2 +7.1 93 +7 +7 1011.8 986.9
21 11.06 З 1 200 м туман ?/? +8.2 +7.1 93 +7 +7 1013.2 988.3 +7.8
00 12.06 Ю 2 2000 м дымка {туман} 10/10 300 м
[St]
+9.7 +8.6 93 +8 +8 1013.1 988.3
03 12.06 Ю 4 50 км 10/0
[Cc]
+17.6 +11.0 65 +17 +28 1010.6 986.6
06 12.06 Ю 5 50 км 8/1 1000 м
[Cu hum Cc]
+19.8 +11.7 60 +21 +26 комфорт 1008.6 984.8
09 12.06 Ю 3 50 км 9/0
[Ci]
+15.8 +10.6 71 +15 +17 1009.2 985.1 +20.2 0.0
12 12.06 Ю 3 50 км 10/8 600 м
[St Ac trans]
+10.9 +9.1 89 +9 +9 1010.9 986.2
15 12.06 Ю 3 4000 м дымка 10/10 600 м
[St]
+10.3 +8.9 91 +8 +8 1011.0 986.4
18 12.06 Ю 3 4000 м дымка 10/10 600 м
[St]
+10.0 +8.4 90 +8 +8 1011.4 986.7
21 12.06 ЮЗ 1 50 км 10/10 300 м
[St]
+10.5 +8.2 86 +10 +10 1011.7 987.0 +10.0
00 13.06 СЗ 1 4000 м дымка 10/10 300 м
[St]
+11.3 +9.5 89 +11 +11 1011.8 987.2
03 13.06 Ю 6 50 км 9/9 600 м
[St]
+14.0 +10.6 80 +12 +13 1010.5 986.2
06 13.06 Ю 7-12
{12}
50 км 9/9 600 м
[Sc]
+14.1 +10.9 81 +12 +12 1009.2 984.9
09 13.06 Ю 4
{12}
10 км слаб. морось 10/10 300 м
[St]
+12.1 +10.7 91 +10 +10 1008.7 984.2 +14.6 0.0
12 13.06 Ю 4 4000 м слаб. морось 10/10 300 м
[St]
+11.7 +10.6 93 +9 +9 1009.6 985.1
15 13.06 Ю 4 4000 м слаб. морось 10/10 300 м
[St]
+11.9 +10.7 92 +10 +10 1009.0 984.5
18 13.06 Ю 4 4000 м дымка 10/10 300 м
[St]
+12.3 +11.2 93 +10 +10 1007.9 983.5
21 13.06 Ю 1 1000 м дымка 10/10 300 м
[St]
+12.6 +11.5 93 +13 +13 1007.6 983.2 +11.7 0.6
00 14.06 СВ 1 500 м туман ?/? +13.6 +12.5 93 +14 +14 1007.3 983.0
03 14.06 СВ 1 500 м слаб. дождь {туман} туман ?/? +14.1 +12.9 92 +14 +14 1007.0 982.8
06 14.06 С 1 50 км {дождь, туман} 10/8 1000 м
[Sc Ci fib]
+15.6 +13.4 87 +16 +19 1005.3 981.2
09 14.06 ЮВ 1 50 км 10/10 1000 м
[Sc]
+17.4 +14.0 80 +18 +18 1004.1 980.3 +17.6 0.4
12 14.06 Ю 3 50 км 8/4 1000 м
[Sc Ac trans Ci fib]
+16.5 +13.4 82 +16 +16 1005.3 981.3
15 14.06 Ю 1 50 км 6/6 1000 м
[Sc]
+14.1 +12.8 92 +14 +14 1005.9 981.7
18 14.06 С 2 4000 м туман на расстоянии 9/9 300 м
[St]
+12.6 +11.4 92 +12 +12 1004.2 979.9
21 14.06 штиль 0 1000 м дымка 10/10 300 м
[St]
+14.1 +12.8 92 +14 +14 1003.9 979.7 +12.0
00 15.06 Ю 3 50 км 10/8 300 м
[St Ac trans]
+17.2 +13.0 76 +17 +18 1004.4 980.5
03 15.06 Ю 1 50 км 10/9 1000 м
[Sc Ac lent]
+18.2 +13.3 73 +20 +20 1004.1 980.3
06 15.06 Ю 2 50 км 10/8 600 м
[Cb cap Ac As]
+18.8 +14.0 74 +20 +21 1003.2 979.4
09 15.06 С 2 50 км в посл. час ливневой дождь 10/9 600 м
[Cb cap As op]
+17.0 +13.6 80 +17 +17 1003.5 979.6 +19.5 0.0
12 15.06 СЗ 3 10 км слаб. ливневой дождь 10/10 600 м
[Cb cap]
+14.2 +12.3 88 +13 +13 1004.7 980.5
15 15.06 СЗ 3 4000 м дождь {ливн. осадки} 10/0
[As op]
+12.5 +10.8 89 +11 +11 1004.8 980.5
18 15.06 С 3 10 км слаб. дождь 10/0
[As op]
+12.3 +9.8 85 +11 +11 1003.9 979.6
21 15.06 С 4 50 км слаб. дождь 10/0 600 м
[As op]
+12.1 +9.7 85 +10 +10 1004.8 980.4 +11.9 8
00 16.06 С 4 50 км в посл. час дождь 10/8 600 м
[Sc As op]
+13.6 +10.1 79 +12 +12 1005.0 980.7
03 16.06 СЗ 4 50 км 10/10 600 м
[Cu Sc]
+17.0 +10.3 65 +17 +17 1004.5 980.5
06 16.06 С 6
{13}
50 км 10/5 600 м
[Cu Sc Cs]
+17.3 +9.4 60 +17 +19 1004.3 980.4

 

Местоположение метеостанции Партизанск (Приморский край, Россия): широта 43.15 долгота 133.00 высота над уровнем моря 208 м.

В архиве по умолчанию представлена погода в Партизанске за последнюю неделю. Архивные данные за месяц целиком и за предыдущие месяцы, начиная с января 2011 года, Вы можете получить, выбрав интересующий диапазон дат из раскрывающегося списка и нажав кнопку "Ввод!".


*Определитесь, кто Вы:
робот инопланетянин человек

Внимание! Время в таблицах - всемирное. Для получения местного времени необходимо прибавить поправку, которая равна 10 ч.

Смотрите также архив погоды в соседних городах и на ближайших метеорологических станциях:

Погода в Находке (Приморский край, Россия) (42 км)
Погода в Многоудобном (Приморский край, Россия) (56 км)
Погода в Лазо (Приморский край, Россия) (71 км)
Погода в Преображении (Приморский край, Россия) (78 км)
Погода в Владивостоке (Приморский край, Россия) (89 км)
Погода на Мысе Назимова (Приморский край, Россия) (90 км)
Погода в Анучино (Приморский край, Россия) (91 км)
Погода в Лучегорске (Приморский край, Россия) (117 км)
Погода в Тимирязевском (Приморский край, Россия) (120 км)
Погода в Чугуевке (Приморский край, Россия) (129 км)

Пояснения к столбцам:

Ветер - указаны скорость ветра в м/с - средняя за 10 мин, порывы в срок и между сроками (в фигурных скобках) и направление, откуда дует ветер: С - северный, СВ - северо-восточный, В - восточный, ЮВ - юго-восточный, Ю - южный, ЮЗ - юго-западный, З - западный, СЗ - северо-западный.
Видимость - горизонтальная дальность видимости в метрах или километрах. При видимости от 1 до 10 км при отсутствии осадков обычно наблюдается дымка, при ухудшении видимости до 1 км и менее - туман. В сухую погоду видимость может ухудшаться дымом, пылью или мглою.
Явления - указаны атмосферные явления, наблюдавшиеся в срок или в последний час перед сроком; фигурными скобками обозначены явления, наблюдавшиеся между сроками (за 1-3 часа до срока); квадратными скобками обозначены град или гололедные отложения с указанием их диаметра в мм.
Облачность - указаны через наклонную черту общая и нижняя облачность в баллах и высота нижней границы облаков в метрах; квадратными скобками обозначены формы облаков: Ci - перистые, Cs - перисто-слоистые, Cc - перисто-кучевые, Ac - высококучевые, As - высокослоистые, Sc - слоисто-кучевые, Ns - слоисто-дождевые, Cu - кучевые, Cb - кучево-дождевые. Подробнее классификацию облаков см. в Атласе облаков (PDF).
T - Температура воздуха - температура, измеренная на высоте 2 м над землей.
Td - Температура точки росы - температура, при понижении до которой содержащийся в воздухе водяной пар достигнет насыщения.
f - Относительная влажность воздуха - влажноcть воздуха, измеренная на высоте 2 м над землей.
Te - Эффективная температура - температура, которую ощущает одетый по сезону человек в тени. Характеристика душности погоды. При расчете учитывается влияние влажности воздуха и скорости ветра на теплоощущения человека.
Tes - Эффективная температура на солнце - температура, которую ощущает человек, с поправкой на солнечный нагрев. Характеристика знойности погоды. Зависит от высоты солнца над горизонтом, облачности и скорости ветра. Ночью, в пасмурную погоду, а также при ветре 12 м/с и более поправка равна нулю.
P - Атмосферное давление - приведенное к уровню моря атмосферное давление.
Po - Атмосферное давление - измеренное на уровне метеостанции атмосферное давление.
Tmin - Минимальная температура - минимум температуры воздуха на высоте 2 м над землей.
Tmax - Максимальная температура - максимум температуры воздуха на высоте 2 м над землей.
R - Количество осадков - Количество выпавших осадков за период времени, мм. При наведении курсора мыши на число - период времени, за который выпало указанное количество осадков.
R24 - Количество осадков - Количество выпавших осадков за 24 часа, мм.
S - Снежный покров - Высота снежного покрова, см. При наведении курсора мыши на число - состояние снежного покрова и степень покрытия местности в баллах.